SCP
0 0 0 0 0 0 0 0 0 0 0 0 0 0 0 0 0 0 0 0 0 0 0 1 1 1 1 0 0 0 0 0 0 0 0 0 0 0 0 0 0 0 0 0 0 0 0 0 0
0 0 0 0 0 0 0 0 0 0 0 0 0 0 0 0 0 0 0 0 0 0 0 0 1 1 0 0 0 0 0 0 0 0 0 0 0 0 0 0 0 0 0 0 0 0 0 0 0
0 0 0 0 0 0 0 0 0 0 0 0 0 0 0 0 0 0 0 0 0 0 0 0 1 1 0 0 0 0 0 0 0 0 0 0 0 0 0 0 0 0 0 0 0 0 0 0 0
0 0 0 0 0 0 0 0 0 0 0 0 0 0 0 0 0 0 0 0 0 0 0 0 1 1 0 0 0 0 0 0 0 0 0 0 0 0 0 0 0 0 0 0 0 0 0 0 0
0 0 0 0 0 0 0 0 0 0 0 0 0 0 0 0 0 0 0 0 0 0 0 1 1 1 1 0 0 0 0 0 0 0 0 0 0 0 0 0 0 0 0 0 0 0 0 0 0
0 0 0 0 0 0 0 0 0 0 0 0 0 0 0 0 0 0 0 0 0 0 0 1 1 1 1 0 0 0 0 0 0 0 0 0 0 0 0 0 0 0 0 0 0 0 0 0 0
0 0 0 0 0 0 0 0 0 0 0 0 0 0 0 0 0 0 0 0 0 0 1 1 1 1 1 0 0 0 0 0 0 0 0 0 0 0 0 0 0 0 0 0 0 0 0 0 0
0 0 0 0 0 0 0 0 0 0 0 0 0 0 0 0 0 0 0 0 1 1 1 1 1 1 1 0 0 0 0 0 0 0 0 0 0 0 0 0 0 0 0 0 0 0 0 0 0
0 0 0 0 0 0 0 0 0 0 0 0 0 0 0 0 0 0 0 0 0 1 1 1 1 0 0 0 0 0 0 0 0 0 0 0 0 0 0 0 0 0 0 0 0 0 0 0 0
0 0 0 0 0 0 0 0 0 0 0 0 0 0 0 0 0 0 0 0 0 0 0 0 0 0 0 0 0 0 0 0 0 0 0 0 0 0 0 0 0 0 0 0 0 0 0 0 0
0 0 0 0 0 0 0 0 0 0 0 0 0 0 0 0 0 0 0 0 0 0 0 0 0 0 0 0 0 0 0 0 0 0 0 0 0 0 0 0 0 0 0 0 0 0 0 0 0
0 0 0 0 0 0 0 0 0 0 0 0 0 0 0 0 0 0 0 0 0 0 0 0 0 0 0 0 0 0 0 0 0 0 0 0 0 0 0 0 0 0 0 0 0 0 0 0 0
0 0 0 0 0 0 0 0 0 0 0 0 0 0 0 0 0 0 0 0 0 0 0 0 0 0 0 0 0 0 0 0 0 0 0 0 0 0 0 0 0 0 0 0 0 0 0 0 0
0 0 0 0 0 0 0 0 0 0 0 0 0 0 0 0 0 0 0 0 0 0 0 0 0 0 0 0 0 0 0 0 0 0 0 0 0 0 0 0 0 0 0 0 0 0 0 0 0
0 0 0 0 0 0 0 0 0 0 0 0 0 0 0 0 0 0 0 0 0 0 0 0 0 0 0 0 0 0 0 0 0 0 0 0 0 0 0 0 0 0 0 0 0 0 0 0 0
0 0 0 0 0 0 0 0 0 0 0 0 0 0 0 0 0 0 0 0 0 0 0 0 0 0 0 0 0 0 0 0 0 0 0 0 0 0 0 0 0 0 0 0 0 0 0 0 0
0 0 0 0 0 0 0 0 0 0 0 0 0 0 0 0 0 0 0 0 0 0 0 0 0 0 0 0 0 0 0 0 0 0 0 0 0 0 0 0 0 0 0 0 0 0 0 0 0
0 0 0 0 0 0 0 0 0 0 0 0 0 0 0 0 0 0 0 0 0 0 0 0 0 0 0 0 0 0 0 0 0 0 0 0 0 0 0 0 0 0 0 0 0 0 0 0 0
0 0 0 0 0 0 0 0 0 0 0 0 0 0 0 0 0 0 0 0 0 0 0 0 0 0 0 0 0 0 0 0 0 0 0 0 0 0 0 0 0 0 0 0 0 0 0 0 0
0 0 0 0 0 0 0 0 0 0 0 0 0 0 0 0 0 0 0 0 0 0 0 0 0 0 0 0 0 0 0 0 0 0 0 0 0 0 0 0 0 0 0 0 0 0 0 0 0
0 0 0 0 0 0 0 0 0 0 0 0 0 0 0 0 0 0 0 0 0 0 0 0 0 0 0 0 0 0 0 0 0 0 0 0 0 0 0 0 0 0 0 0 0 0 0 0 0
0 0 0 0 0 0 0 0 0 0 0 0 0 0 0 0 0 0 0 0 0 0 0 0 0 0 0 0 0 0 0 0 0 0 0 0 0 0 0 0 0 0 0 0 0 0 0 0 0
0 0 0 0 0 0 0 0 0 0 0 0 0 0 0 0 0 0 0 0 0 0 0 0 0 0 0 0 0 0 0 0 0 0 0 0 0 0 0 0 0 0 0 0 0 0 0 0 0
0 0 0 0 0 0 0 0 0 0 0 0 0 0 0 0 0 0 0 0 0 0 0 0 0 0 0 0 0 0 0 0 0 0 0 0 0 0 0 0 0 0 0 0 0 0 0 0 0
0 0 0 0 0 0 0 0 0 0 0 0 0 0 0 0 0 0 0 0 0 0 0 0 0 0 0 0 0 0 0 0 0 0 0 0 0 0 0 0 0 0 0 0 0 0 0 0 0
0 0 0 0 0 0 0 0 0 0 0 0 0 0 0 0 0 0 0 0 0 0 0 0 0 0 0 0 0 0 0 0 0 0 0 0 0 0 0 0 0 0 0 0 0 0 0 0 0
0 0 0 0 0 0 0 0 0 0 0 0 0 0 0 0 0 0 0 0 0 0 0 0 0 0 0 0 0 0 0 0 0 0 0 0 0 0 0 0 0 0 0 0 0 0 0 0 0
0 0 0 0 0 0 0 0 0 0 0 0 0 0 0 0 0 0 0 0 0 0 0 0 0 0 0 0 0 0 0 0 0 0 0 0 0 0 0 0 0 0 0 0 0 0 0 0 0
0 0 0 0 0 0 0 0 0 0 0 0 0 0 0 0 0 0 0 0 0 0 0 0 0 0 0 0 0 0 0 0 0 0 0 0 0 0 0 0 0 0 0 0 0 0 0 0 0
0 0 0 0 0 0 0 0 0 0 0 0 0 0 0 0 0 0 0 0 0 0 0 0 0 0 0 0 0 0 0 0 0 0 0 0 0 0 0 0 0 0 0 0 0 0 0 0 0
Wind_Speed
13 9 3 5 6 4 3 5 3 5 4 3 2 4 7 4 2 3 1 8 11 12 10 13 15 15 16 15 14 13 11 9 9 9 9 8 8 8 8 7 6 5 5 4 3 3 3 3 3
7 5 5 6 5 0 5 4 2 2 5 5 1 5 6 3 2 4 4 8 14 13 10 11 13 15 16 15 14 12 11 10 9 9 7 6 7 7 8 7 6 5 4 4 3 2 2 1 1
7 3 4 4 2 5 4 3 3 3 4 4 3 6 5 3 3 4 7 12 11 11 9 11 15 15 16 15 14 12 11 9 9 8 6 5 4 6 8 8 6 5 4 3 2 1 1 1 2
4 5 5 2 6 7 5 6 6 2 4 4 3 5 3 1 4 4 9 13 12 10 8 11 15 15 16 15 14 12 11 9 8 7 6 4 2 3 8 9 8 6 4 2 1 1 2 3 4
4 4 1 3 7 7 5 6 7 3 1 4 2 4 1 4 1 6 10 13 13 10 8 11 16 16 16 15 13 12 11 9 8 8 7 5 2 1 8 10 9 7 5 3 2 3 4 5 6
3 4 3 6 9 8 6 6 5 3 0 3 3 4 1 2 4 6 8 10 12 12 10 10 16 16 16 15 14 13 11 10 9 8 7 6 3 2 7 10 9 7 6 5 5 6 7 8 8
4 4 6 6 6 9 8 4 3 4 2 1 1 4 2 3 6 7 8 10 10 11 10 8 9 12 14 13 12 12 11 10 9 8 7 6 5 4 7 9 9 8 7 6 6 8 9 9 10
4 4 6 6 6 9 5 3 4 5 4 4 4 6 5 7 6 5 7 10 9 9 10 10 9 8 8 9 12 11 11 10 9 8 7 8 6 5 4 6 7 8 8 8 8 9 9 10 10
2 3 8 9 9 8 3 3 6 3 3 3 3 6 7 5 4 4 5 5 7 9 9 10 10 9 9 8 9 9 10 10 9 8 8 7 3 3 3 5 8 9 10 9 9 10 10 9 9
5 8 10 7 7 6 4 3 5 4 2 1 1 1 0 6 6 7 7 8 11 12 11 10 11 11 9 8 6 5 5 5 5 4 4 3 3 3 5 8 11 11 10 9 9 10 10 8 4
6 8 6 7 8 7 7 6 4 4 5 5 3 1 3 5 6 8 9 9 11 11 12 12 12 11 10 7 6 4 3 4 4 5 5 3 2 2 2 2 3 4 5 4 5 6 4 3 3
6 6 5 6 7 8 9 5 5 6 8 6 6 4 5 7 9 11 12 11 9 8 10 12 12 10 10 8 7 6 4 3 3 5 5 3 2 2 1 1 1 1 1 1 2 2 4 5 5
8 8 11 10 9 10 12 11 9 11 10 8 7 6 6 8 9 10 10 10 11 12 12 11 12 11 10 8 6 6 5 5 4 4 4 5 3 3 3 3 3 3 3 4 4 4 5 6 6
5 5 7 9 12 11 13 15 10 11 9 8 7 8 9 9 9 7 7 7 9 12 13 10 10 10 10 8 6 5 4 4 4 3 4 5 4 5 5 5 5 5 4 4 4 5 5 4 5
4 6 8 7 8 6 9 18 15 11 9 9 9 10 10 8 7 7 6 5 6 8 9 9 9 9 10 8 6 4 4 6 5 5 7 9 8 7 6 5 5 4 4 4 5 5 5 5 6
4 4 6 4 6 7 9 21 8 8 10 11 11 11 10 8 7 6 6 5 5 6 7 7 8 9 9 7 6 6 7 8 7 7 8 10 9 8 7 5 4 4 4 4 4 4 4 5 5
4 5 6 5 6 7 12 13 7 10 10 10 11 10 9 7 6 6 6 6 6 6 6 6 7 9 9 10 9 9 8 8 7 7 7 8 8 8 7 5 4 4 5 5 4 4 3 4 5
7 7 6 5 4 8 15 16 8 8 9 11 10 8 7 9 9 7 6 5 5 4 5 6 8 11 13 11 10 9 9 8 7 7 7 8 7 7 6 5 5 5 4 4 4 4 3 2 4
5 6 7 4 6 7 14 18 13 12 12 11 10 7 7 8 6 5 5 5 6 5 6 7 11 12 12 10 7 7 6 6 6 6 7 8 7 7 6 5 5 5 4 4 4 3 4 3 4
11 14 12 8 6 8 12 18 13 14 15 14 14 10 10 8 6 5 5 5 6 6 7 9 10 10 9 8 6 5 6 5 5 5 6 7 7 6 6 6 5 4 4 5 5 4 3 3 3
14 14 11 9 10 10 11 15 13 12 12 14 13 10 14 16 13 9 7 6 7 7 8 9 10 10 11 10 10 9 6 5 4 5 4 5 6 6 6 6 5 4 4 3 3 3 3 2 3
14 8 9 10 7 6 5 10 8 9 13 16 14 11 15 13 10 10 10 9 8 7 8 10 10 11 11 11 12 12 7 6 4 3 4 5 6 6 6 6 5 4 3 3 3 2 2 2 2
7 5 7 8 8 9 10 12 11 8 14 17 16 14 16 15 15 14 12 11 9 8 8 9 10 10 9 8 10 10 7 5 5 5 6 5 5 6 5 5 4 3 2 2 3 3 3 2 2
6 3 5 6 5 13 15 12 12 9 14 11 15 15 16 16 13 11 8 10 9 8 8 9 10 9 8 9 8 9 10 10 9 7 5 4 3 4 4 4 3 2 2 2 2 3 3 3 2
10 6 5 6 9 10 7 12 14 10 11 14 14 16 17 17 16 15 14 13 13 11 9 9 11 9 8 9 9 9 9 9 9 7 6 5 3 2 2 2 2 2 2 3 3 3 4 3 3
14 14 9 7 6 5 8 15 11 11 14 12 11 15 19 19 17 17 16 15 14 13 11 10 11 10 9 10 10 9 9 7 6 6 5 4 3 2 1 1 1 2 3 4 4 3 3 3 4
9 13 11 5 6 6 9 8 7 10 11 10 11 18 22 21 18 16 14 13 13 13 11 11 12 11 10 11 10 9 8 8 7 6 5 3 2 2 2 1 2 3 4 4 4 3 5 5 4
9 8 7 8 6 8 8 9 9 11 12 9 16 20 19 18 16 15 14 13 11 10 9 9 10 11 10 9 8 8 8 8 7 6 5 4 2 2 2 3 3 4 4 4 4 5 5 6 5
12 12 9 9 6 6 6 8 9 15 14 16 18 19 20 19 18 16 13 11 10 10 10 9 9 10 9 9 9 9 8 7 6 5 4 3 2 2 2 3 4 5 5 5 5 6 7 6 6
14 14 13 9 8 6 6 11 7 9 13 17 17 16 15 15 15 14 13 11 11 11 10 9 9 9 8 8 9 8 7 7 6 5 4 3 2 2 3 3 4 5 6 6 6 7 7 7 7
Wind_Direction
322 330 8 47 48 44 276 271 280 330 313 273 230 105 111 122 171 185 146 148 144 152 164 162 166 166 163 157 153 150 148 146 146 146 145 145 137 132 131 130 126 111 93 81 75 68 73 69 60
318 344 35 52 79 343 267 256 249 303 281 284 342 74 88 84 135 134 131 155 149 156 161 163 167 168 165 160 158 157 157 157 155 150 147 148 150 149 148 147 145 136 121 110 104 93 89 70 302
325 37 65 63 152 203 231 244 256 284 305 318 39 71 91 115 162 185 167 157 147 157 162 166 167 169 167 164 163 162 164 165 163 158 149 141 156 175 175 169 166 159 147 136 120 87 48 351 321
19 31 50 82 248 236 237 272 270 289 332 339 50 72 67 59 187 187 147 155 150 161 165 166 166 168 168 167 167 167 170 171 171 172 167 154 141 200 196 181 176 175 172 171 139 348 319 307 305
55 71 35 267 255 251 245 263 251 211 282 326 31 104 72 335 134 146 145 159 157 163 167 168 167 168 169 171 171 173 176 175 174 177 176 158 109 161 179 177 180 186 194 216 276 309 313 307 303
59 84 155 238 258 274 281 279 238 193 23 345 52 109 185 274 159 177 158 160 164 162 163 171 171 168 169 173 175 177 180 178 175 178 180 160 132 131 167 178 187 198 213 234 269 291 297 301 299
139 145 200 220 258 278 271 292 249 165 132 228 85 117 243 249 203 181 152 151 159 161 161 168 171 169 171 175 178 181 183 182 177 181 182 167 162 159 171 187 196 210 227 246 270 282 286 289 291
163 164 211 210 229 260 261 269 250 187 185 192 125 141 217 231 212 178 135 143 154 162 167 169 168 169 171 176 182 185 187 184 182 188 181 178 190 197 195 200 211 224 236 252 268 275 279 282 284
134 177 212 204 205 239 258 323 305 276 173 163 148 170 222 196 154 146 129 138 165 176 178 175 172 176 175 175 186 188 188 188 188 197 197 194 203 222 231 224 234 236 240 252 264 270 275 277 277
179 217 216 208 204 236 269 270 284 292 255 203 279 336 222 131 157 180 181 180 184 189 190 183 181 182 177 181 178 182 186 190 192 203 208 200 202 226 229 230 233 235 245 261 276 286 292 290 284
209 223 213 227 235 256 276 279 257 230 229 219 218 229 130 157 189 208 211 203 200 189 187 189 188 184 177 179 172 181 186 191 200 209 214 202 214 260 239 229 257 263 277 289 306 319 323 319 307
257 248 223 229 238 255 267 272 268 239 225 218 210 204 183 201 209 216 217 216 212 195 189 188 191 186 180 179 178 182 186 192 196 210 216 182 175 176 145 157 268 304 323 4 13 6 6 10 5
260 268 273 274 266 259 267 262 258 256 249 247 251 257 245 235 235 234 229 220 202 197 195 182 182 181 176 175 176 178 188 194 190 188 181 163 151 127 96 71 52 40 40 47 41 30 25 18 7
263 278 271 269 271 267 265 269 256 255 251 248 251 260 262 260 260 245 221 208 196 195 192 178 170 168 165 167 165 164 173 163 150 145 135 124 107 94 79 65 55 44 41 48 48 35 28 16 4
306 304 291 264 261 263 277 266 251 245 246 249 253 257 262 258 242 215 195 187 184 182 175 171 166 157 156 156 150 133 125 116 101 89 83 83 82 84 82 71 59 41 37 47 46 31 30 20 6
304 286 265 253 229 230 236 257 253 243 232 243 250 255 259 242 216 196 172 155 145 138 143 153 159 151 145 134 118 105 101 99 94 88 82 82 82 85 82 73 59 45 42 40 42 26 21 12 358
243 253 250 262 227 219 227 255 233 234 229 240 250 253 250 219 199 196 178 160 152 144 139 135 139 141 124 109 104 101 99 96 96 89 86 83 81 80 81 72 58 52 48 36 34 33 27 10 348
217 231 245 237 261 226 245 257 257 260 234 233 247 256 232 199 197 195 181 165 151 146 141 135 128 125 118 111 106 101 94 91 87 85 86 84 77 75 77 71 58 56 53 36 25 17 12 8 336
253 259 264 274 310 297 266 266 255 247 249 247 249 240 217 209 205 184 152 136 129 124 126 130 130 131 126 125 120 115 105 99 89 82 80 78 76 72 70 69 56 53 57 46 29 11 1 348 342
249 264 275 294 284 285 288 282 264 242 237 235 238 225 197 195 191 170 135 125 128 121 116 120 126 125 124 122 116 111 113 99 87 83 72 70 71 68 71 67 59 50 51 40 32 24 7 344 1
239 242 253 267 301 292 289 282 258 246 235 236 234 210 192 186 181 169 147 134 124 122 127 127 125 122 122 121 116 112 99 86 76 74 70 66 72 69 69 69 68 57 54 40 23 23 27 345 335
246 232 238 251 257 267 266 284 267 238 233 232 230 203 193 186 172 163 153 143 132 129 127 127 127 128 129 130 134 136 133 128 128 121 102 81 71 70 67 67 67 59 51 35 4 23 0 11 356
232 216 236 247 247 261 250 267 267 237 235 227 221 205 194 180 171 167 159 146 132 129 129 129 127 128 128 124 129 125 116 112 113 108 104 87 69 65 64 63 57 46 31 12 1 1 5 8 1
230 254 266 243 236 250 236 232 264 222 226 220 213 201 187 174 165 155 143 135 125 123 125 128 126 123 121 119 119 123 124 124 125 126 119 101 79 58 53 60 51 34 9 349 342 343 349 344 339
203 207 227 216 215 242 193 213 248 235 234 224 213 194 176 167 161 157 152 148 141 136 133 130 128 124 121 116 113 116 121 124 129 132 125 119 101 77 41 47 38 13 347 340 340 339 336 327 323
199 196 208 205 219 246 193 226 245 238 247 243 218 181 166 164 165 163 159 153 147 141 137 134 130 126 122 118 114 112 114 112 111 113 118 121 131 146 117 64 30 7 355 346 340 329 319 314 302
188 204 220 277 291 266 230 241 263 244 246 228 187 165 168 165 164 162 157 152 148 144 142 139 133 127 122 120 117 112 111 109 108 108 108 117 133 130 79 37 14 358 346 335 332 318 308 304 291
195 172 168 207 234 248 246 229 224 218 218 183 166 166 165 160 158 157 157 154 147 139 132 127 128 127 123 121 121 118 110 107 110 111 117 120 109 80 46 10 359 345 333 328 326 313 302 299 294
192 197 192 190 228 251 256 248 220 209 191 173 171 169 165 162 160 159 157 150 139 132 132 129 126 125 123 118 115 114 110 111 114 118 126 126 106 68 22 352 343 334 326 324 318 305 300 297 296
202 202 195 195 204 218 285 282 281 208 181 172 169 166 161 156 154 154 151 144 142 142 139 135 132 127 125 121 116 114 114 117 121 126 126 113 81 32 353 338 335 328 324 317 306 299 304 298 295